Retour au catalogue

STARLINK-32455

ActifCommunicationsVLEO
NORAD 61632·PAYLOAD·🇺🇸 United States

Lancé Oct 23, 2024 depuis Cape Canaveral Space Force Station

Loading…

Prochains Passages (prochaines 24 heures)

TLE

FraisSource: CelesTrak SupGP

Époque: Sep 15, 2026, 02:54 UTC

1 61632C 24191M   26258.12131944 -.00001087  00000+0 -39370-4 0  2584
2 61632  43.0001 168.4538 0001292 270.0979 106.5206 15.27573199    11

Suivez STARLINK-32455 en temps réel avec AllMySat

Download on the App Store